Weather History for Mobridge, SD

Change the Weather History Date:

Wednesday, March 20, 2013

  Actual Average Record
Temperature  
Mean Temperature 14 °F 34 °F  
Max Temperature 30 °F 44 °F 71 °F (2007)
Min Temperature -2 °F 23 °F -10 °F (1965)
Degree Days  
Heating Degree Days 51 31  
Month to date heating degree days 786 712  
Since 1 July heating degree days 6602 6687  
Cooling Degree Days 0 0  
Month to date cooling degree days 0 0  
Year to date cooling degree days 0 0  
Moisture  
Dew Point 4 °F    
Average Humidity 67    
Maximum Humidity 87    
Minimum Humidity 46    
Precipitation  
Precipitation 0.00 in 0.03 in 0.38 in (2008)
Month to date precipitation 0.22 0.52  
Year to date precipitation 1.18 1.25  
Snow  
Snow 0.00 in - - ()
Month to date snowfall 1.5  
Since 1 July snowfall 25.8  
Snow Depth 0.00 in    
Sea Level Pressure  
Sea Level Pressure 30.32 in    
Wind  
Wind Speed 8 mph (ESE)    
Max Wind Speed 21 mph    
Max Gust Speed 26 mph    
Visibility 10 miles    
Events      
T = Trace of Precipitation, MM = Missing Value Source: NWS Daily Summary

Daily Weather History Graph

Daily Weather History Graph

Search for Another Location

Airport:

Trip Planner

Search our weather history database for the weather conditions in past years. The results will help you decide how hot, cold, wet, or windy it might be!

Date:

Astronomy

Mar. 20, 2013 Rise Set
Actual Time 7:44 AM CDT 7:54 PM CDT
Civil Twilight 7:14 AM CDT 8:24 PM CDT
Nautical Twilight 6:39 AM CDT 8:58 PM CDT
Astronomical Twilight 6:04 AM CDT 9:34 PM CDT
Moon 1:15 PM CDT (3/20) 3:41 AM CDT (3/20)
Length of Visible Light 13h 09m
Length of Day
12h 10m
First Quarter, 59% of the Moon is Illuminated
Mar 20
First Quarter
Mar 27
Full
Apr 2
Last Quarter
Apr 10
New
Apr 18
First Quarter

Hourly Weather History & Observations

Time (CDT) Temp. Windchill Dew Point Humidity Pressure Visibility Wind Dir Wind Speed Gust Speed Precip Events Conditions
12:52 AM 6.1 °F -6.8 °F -0.0 °F 76% 30.48 in 10.0 mi NW 8.1 mph - N/A   Clear
1:52 AM 7.0 °F -3.3 °F -0.0 °F 73% 30.47 in 10.0 mi WNW 5.8 mph - N/A   Clear
2:52 AM 1.9 °F - -2.9 °F 80% 30.48 in 10.0 mi Calm Calm - N/A   Clear
3:52 AM 3.0 °F - -2.9 °F 76% 30.48 in 10.0 mi Calm Calm - N/A   Clear
4:52 AM 1.0 °F - -4.0 °F 79% 30.46 in 10.0 mi Calm Calm - N/A   Clear
5:52 AM 1.0 °F -8.7 °F -5.1 °F 75% 30.45 in 10.0 mi North 4.6 mph - N/A   Clear
6:52 AM -0.9 °F - -5.1 °F 83% 30.46 in 10.0 mi Calm Calm - N/A   Clear
7:52 AM -0.0 °F - -5.1 °F 79% 30.44 in 10.0 mi Calm Calm - N/A   Clear
8:52 AM 6.1 °F - 1.9 °F 83% 30.42 in 10.0 mi Calm Calm - N/A   Clear
9:52 AM 10.9 °F 2.9 °F 5.0 °F 77% 30.40 in 10.0 mi SSE 4.6 mph - N/A   Clear
10:52 AM 16.0 °F 8.8 °F 3.0 °F 57% 30.39 in 10.0 mi SSE 4.6 mph - N/A   Clear
11:52 AM 19.9 °F 14.9 °F 5.0 °F 52% 30.36 in 10.0 mi Variable 3.5 mph - N/A   Clear
12:52 PM 23.0 °F 13.9 °F 7.0 °F 50% 30.32 in 10.0 mi SE 8.1 mph - N/A   Clear
1:52 PM 25.0 °F 16.3 °F 10.0 °F 53% 30.28 in 10.0 mi East 8.1 mph - N/A   Clear
2:52 PM 28.0 °F 18.1 °F 10.9 °F 49% 30.26 in 10.0 mi ESE 11.5 mph 19.6 mph N/A   Clear
3:52 PM 28.9 °F 19.8 °F 12.0 °F 49% 30.22 in 10.0 mi East 10.4 mph - N/A   Clear
4:52 PM 28.9 °F 18.2 °F 12.0 °F 49% 30.19 in 10.0 mi East 13.8 mph - N/A   Clear
5:52 PM 27.0 °F 14.7 °F 10.0 °F 49% 30.19 in 10.0 mi ESE 16.1 mph - N/A   Clear
6:52 PM 23.0 °F 10.1 °F 8.1 °F 53% 30.18 in 10.0 mi ESE 15.0 mph - N/A   Clear
7:52 PM 19.9 °F 5.7 °F 8.1 °F 60% 30.17 in 10.0 mi ESE 16.1 mph - N/A   Clear
8:52 PM 18.0 °F 1.3 °F 8.1 °F 65% 30.14 in 10.0 mi East 20.7 mph 26.5 mph N/A   Clear
9:52 PM 17.1 °F 2.5 °F 8.1 °F 68% 30.14 in 10.0 mi ESE 15.0 mph - N/A   Clear
10:52 PM 16.0 °F 1.7 °F 8.1 °F 71% 30.11 in 10.0 mi ESE 13.8 mph 24.2 mph N/A   Clear
11:52 PM 14.0 °F -0.8 °F 7.0 °F 74% 30.10 in 10.0 mi ESE 13.8 mph - N/A   Clear